Date String (YYYY-MM-DD hh:mm:ss) UTC,Instrument flags,Ambient pressure (hPa),Sample flow (lpm),Bypass flow (lpm),Sample temperature (°C),Ambient temperature (°C),ASC tube jacket temperature (°C),LED temperature (°C),Box temperature (°C),Sample RH (%),Span deviation,Mass concentration (μg/m³),Mass concentration (μg/m³),Mass concentration (μg/m³)
DateTimeUTC,F1_M11,P_M11,Q1_M11,Q2_M11,T1_M11,T2_M11,T3_M11,T4_M11,T5_M11,U1_M11,ZSPAN_M11,X0_M11,X2_M11,X1_M11
2022-07-09 13:00:00,,0833.2,5.00,0.00,29.9,27.9,00.0,38.7,31.6,27.1,0000.0,0012.27,0004.82,0003.96
2022-07-09 13:01:00,,0833.2,5.00,0.00,29.8,28.1,00.0,38.7,31.6,26.4,0000.0,0012.67,0004.85,0003.96
2022-07-09 13:02:00,,0833.3,4.99,0.00,29.8,28.2,00.0,38.7,31.6,27.3,0000.0,0012.89,0004.86,0003.96
2022-07-09 13:03:00,,0833.3,5.00,0.00,29.9,28.3,00.0,38.7,31.7,27.3,0000.0,0012.45,0004.88,0003.96
2022-07-09 13:04:00,,0833.3,5.00,0.00,29.9,28.4,00.0,38.7,31.7,27.1,0000.0,0012.50,0004.89,0003.94
2022-07-09 13:05:00,,0833.3,5.00,0.00,29.9,28.5,00.0,38.7,31.7,26.6,0000.0,0012.10,0004.87,0003.93
2022-07-09 13:06:00,,0833.3,5.00,0.00,29.9,28.6,00.0,38.7,31.7,25.9,0000.0,0012.11,0004.82,0003.92
2022-07-09 13:07:00,,0833.3,5.00,0.00,29.9,28.7,00.0,38.7,31.8,26.3,0000.0,0012.27,0004.81,0003.91
2022-07-09 13:08:00,,0833.3,5.00,0.00,29.9,28.7,00.0,38.7,31.8,26.1,0000.0,0012.20,0004.84,0003.92
2022-07-09 13:09:00,,0833.3,5.00,0.00,29.9,28.8,00.0,38.7,31.8,25.9,0000.0,0012.27,0004.80,0003.91
2022-07-09 13:10:00,,0833.3,5.00,0.00,30.0,28.8,00.0,38.7,31.9,25.8,0000.0,0011.76,0004.74,0003.91
2022-07-09 13:11:00,,0833.3,5.01,0.00,30.0,28.9,00.0,38.8,31.9,25.6,0000.0,0011.79,0004.73,0003.92
2022-07-09 13:12:00,,0833.3,5.00,0.00,30.0,28.9,00.0,38.8,31.9,25.3,0000.0,0011.95,0004.73,0003.92
2022-07-09 13:13:00,,0833.3,5.00,0.00,30.0,29.0,00.0,38.8,31.9,25.2,0000.0,0011.51,0004.71,0003.93
2022-07-09 13:14:00,,0833.3,5.00,0.00,30.1,29.0,00.0,38.8,32.0,24.7,0000.0,0011.49,0004.73,0003.94
2022-07-09 13:15:00,,0833.3,5.00,0.00,30.1,29.0,00.0,38.8,32.0,24.0,0000.0,0011.33,0004.69,0003.95
2022-07-09 13:16:00,,0833.3,5.00,0.00,30.1,29.0,00.0,38.8,32.0,23.9,0000.0,0011.57,0004.70,0003.95
2022-07-09 13:17:00,,0833.3,5.01,0.00,30.1,28.2,00.0,38.8,31.9,24.2,0000.0,0011.91,0004.71,0003.95
2022-07-09 13:18:00,,0833.3,5.00,0.00,30.0,27.6,00.0,38.7,31.8,23.8,0000.0,0011.51,0004.74,0003.95
2022-07-09 13:19:00,,0833.3,4.98,0.00,30.0,27.4,00.0,38.7,31.7,23.8,0000.0,0011.71,0004.69,0003.94
2022-07-09 13:20:00,,0833.3,5.01,0.00,29.9,27.5,00.0,38.7,31.6,24.0,0000.0,0011.28,0004.64,0003.92
2022-07-09 13:21:00,,0833.3,5.00,0.00,29.9,27.6,00.0,38.7,31.5,23.8,0000.0,0011.00,0004.64,0003.90
2022-07-09 13:22:00,,0833.3,5.00,0.00,29.8,27.7,00.0,38.7,31.5,23.9,0000.0,0011.18,0004.64,0003.86
2022-07-09 13:23:00,,0833.4,5.00,0.00,29.8,27.9,00.0,38.7,31.5,24.0,0000.0,0010.79,0004.58,0003.82
2022-07-09 13:24:00,,0833.4,5.00,0.00,29.8,28.0,00.0,38.7,31.6,24.4,0000.0,0010.76,0004.52,0003.78
2022-07-09 13:25:00,,0833.4,5.00,0.00,29.8,28.2,00.0,38.7,31.6,25.1,0000.0,0011.06,0004.47,0003.73
2022-07-09 13:26:00,,0833.4,5.01,0.00,29.8,28.3,00.0,38.6,31.7,25.1,0000.0,0011.27,0004.45,0003.70
2022-07-09 13:27:00,,0833.4,5.01,0.00,29.8,28.4,00.0,38.7,31.7,25.3,0000.0,0011.54,0004.41,0003.68
2022-07-09 13:28:00,,0833.4,5.00,0.00,29.8,28.5,00.0,38.7,31.7,25.0,0000.0,0010.86,0004.37,0003.66
2022-07-09 13:29:00,,0833.4,5.00,0.00,29.9,28.6,00.0,38.7,31.7,24.8,0000.0,0010.70,0004.32,0003.63
2022-07-09 13:30:00,,0833.3,5.00,0.00,29.9,28.6,00.0,38.7,31.8,24.7,0000.0,0009.85,0004.26,0003.61
2022-07-09 13:31:00,,0833.3,5.00,0.00,29.9,28.7,00.0,38.7,31.8,24.3,0000.0,0009.81,0004.22,0003.59
2022-07-09 13:32:00,,0833.3,5.00,0.00,29.9,28.8,00.0,38.7,31.8,23.9,0000.0,0009.81,0004.19,0003.58
2022-07-09 13:33:00,,0833.4,5.01,0.00,29.9,28.8,00.0,38.7,31.8,24.3,0000.0,0009.74,0004.18,0003.58
2022-07-09 13:34:00,,0833.5,5.00,0.00,30.0,28.9,00.0,38.7,31.9,25.1,0000.0,0009.84,0004.18,0003.59
2022-07-09 13:35:00,,0833.4,5.00,0.00,30.0,28.9,00.0,38.7,31.9,25.2,0000.0,0010.64,0004.23,0003.61
2022-07-09 13:36:00,,0833.4,4.99,0.00,30.0,28.7,00.0,38.7,31.9,24.9,0000.0,0011.25,0004.28,0003.62
2022-07-09 13:37:00,,0833.4,5.00,0.00,30.0,28.0,00.0,38.7,31.8,25.0,0000.0,0011.52,0004.25,0003.63
2022-07-09 13:38:00,,0833.4,5.00,0.00,29.9,27.5,00.0,38.6,31.7,24.7,0000.0,0011.11,0004.22,0003.62
2022-07-09 13:39:00,,0833.4,5.00,0.00,29.9,27.5,00.0,38.6,31.6,25.1,0000.0,0011.00,0004.22,0003.61
2022-07-09 13:40:00,,0833.4,5.00,0.00,29.8,27.6,00.0,38.6,31.5,24.3,0000.0,0010.91,0004.17,0003.59
2022-07-09 13:41:00,,0833.4,5.00,0.00,29.8,27.7,00.0,38.6,31.5,24.2,0000.0,0010.88,0004.18,0003.59
2022-07-09 13:42:00,,0833.5,5.00,0.00,29.8,27.9,00.0,38.6,31.5,24.7,0000.0,0010.89,0004.22,0003.60
2022-07-09 13:43:00,,0833.4,5.00,0.00,29.8,28.0,00.0,38.6,31.5,24.9,0000.0,0012.10,0004.27,0003.60
2022-07-09 13:44:00,,0833.4,5.01,0.00,29.8,28.1,00.0,38.6,31.6,24.8,0000.0,0012.48,0004.27,0003.60
2022-07-09 13:45:00,,0833.4,4.99,0.00,29.8,28.3,00.0,38.6,31.6,24.4,0000.0,0012.12,0004.29,0003.60
2022-07-09 13:46:00,,0833.4,5.00,0.00,29.8,28.4,00.0,38.6,31.6,24.8,0000.0,0011.25,0004.28,0003.59
2022-07-09 13:47:00,,0833.4,5.00,0.00,29.8,28.5,00.0,38.6,31.7,24.8,0000.0,0010.72,0004.28,0003.59
2022-07-09 13:48:00,,0833.5,5.00,0.00,29.8,28.6,00.0,38.6,31.7,24.5,0000.0,0010.35,0004.28,0003.58
2022-07-09 13:49:00,,0833.5,5.00,0.00,29.9,28.7,00.0,38.6,31.7,26.5,0000.0,0011.02,0004.32,0003.59
2022-07-09 13:50:00,,0833.4,5.00,0.00,29.9,28.7,00.0,38.7,31.7,27.8,0000.0,0011.54,0004.33,0003.60
2022-07-09 13:51:00,,0833.4,5.00,0.00,29.9,28.8,00.0,38.7,31.8,25.8,0000.0,0011.65,0004.36,0003.61
2022-07-09 13:52:00,,0833.4,4.99,0.00,29.9,28.9,00.0,38.7,31.9,24.5,0000.0,0011.62,0004.37,0003.62
2022-07-09 13:53:00,,0833.5,5.00,0.00,30.0,28.9,00.0,38.7,31.9,24.4,0000.0,0012.41,0004.41,0003.63
2022-07-09 13:54:00,,0833.5,5.00,0.00,30.0,28.8,00.0,38.7,31.9,25.0,0000.0,0011.93,0004.43,0003.65
2022-07-09 13:55:00,,0833.5,5.00,0.00,30.0,28.1,00.0,38.6,31.8,25.9,0000.0,0011.49,0004.44,0003.67
2022-07-09 13:56:00,,0833.5,5.00,0.00,29.9,27.6,00.0,38.6,31.7,26.5,0000.0,0011.36,0004.42,0003.69
2022-07-09 13:57:00,,0833.5,5.00,0.00,29.9,27.6,00.0,38.6,31.6,25.7,0000.0,0011.33,0004.41,0003.71
2022-07-09 13:58:00,,0833.5,5.00,0.00,29.8,27.6,00.0,38.6,31.6,24.8,0000.0,0011.06,0004.43,0003.72
2022-07-09 13:59:00,,0833.5,5.01,0.00,29.8,27.8,00.0,38.6,31.5,24.6,0000.0,0011.64,0004.45,0003.74
